Home > Weather > Kiel > Past weeks

Flag for Germany Weather for the Past 2 Weeks in Kiel, Schleswig-Holstein, Germany

Now
34 °F

Chilly.


Feels Like: 34 °F
Forecast: 35 / 38 °F
Wind: 2 mph from South

Location: Hohn

Current Time: Feb 13, 2016 at 4:40:52 AM

Latest Report: Feb 13, 2016 at 3:20 AM


Visibility: 2 mi

Pressure: 29.50 "Hg

Humidity: 93%

Dew point: 32 °F

Location of KielLocation

Historic Weather in Kiel — Graph

°F

Kiel Temperature Yesterday

Maximum temperature yesterday: 43 °F (at 1:20 PM)
Minimum temperature yesterday: 36 °F (at 5:20 AM)
Average temperature yesterday: 37 °F

High & Low Weather Summary for the Past Weeks

 TemperatureHumidityPressure
High52 °F (Feb 7, 12:20 PM)100% (Feb 1, 12:20 AM)30.15 "Hg (Feb 1, 12:20 AM)
Low32 °F (Feb 4, 11:20 PM)65% (Jan 30, 9:20 PM)28.85 "Hg (Feb 9, 9:20 PM)
Average42 °F86%29.57 "Hg
* Reported Jan 29 3:20 AM — Feb 13 3:20 AM, Kiel, Weather by CustomWeather, © 2016

Note: Actual official high and low records may vary slightly from our data, if they occured in-between our weather recording intervals... More about our weather records

Advertising

Kiel Weather History for the Previous 24 Hours

 ConditionsComfort  
Time TempWeatherWind HumidityBarometerVisibility
3:20 AM
Sat, Feb 13
34 °FChilly.2 mph93%29.50 "Hg1 mi
2:20 AM34 °FChilly.2 mph100%29.50 "Hg2 mi
1:20 AM34 °FChilly.No wind100%29.50 "Hg2 mi
12:20 AM36 °FChilly.5 mph93%29.50 "Hg2 mi
11:20 PM
Fri, Feb 12
36 °FChilly.6 mph93%29.53 "Hg2 mi
10:20 PM36 °FChilly.1 mph93%29.53 "Hg2 mi
9:20 PM36 °FLight rain. Fog.2 mph93%29.53 "Hg2 mi
8:50 PM36 °FFog.1 mph93%29.53 "Hg3 mi
8:20 PM36 °FLight rain. Fog.2 mph93%29.53 "Hg3 mi
7:20 PM36 °FLight rain. Fog.2 mph93%29.53 "Hg3 mi
6:20 PM36 °FPartly cloudy.5 mph93%29.53 "Hg6 mi
5:20 PM36 °FPartly sunny.5 mph93%29.53 "HgN/A
4:20 PM37 °FScattered showers. Broken clouds.5 mph87%29.53 "HgN/A
3:20 PM37 °FSprinkles. Broken clouds.6 mph87%29.53 "HgN/A
2:20 PM43 °FScattered showers. Broken clouds.8 mph76%29.53 "HgN/A
1:20 PM43 °FScattered clouds.2 mph81%29.53 "HgN/A
12:20 PM39 °FScattered clouds.5 mph87%29.53 "HgN/A
11:55 AM39 °FBroken clouds.3 mph93%29.56 "HgN/A
11:20 AM39 °FSprinkles. Partly sunny.2 mph93%29.56 "HgN/A
10:20 AM37 °FBroken clouds.2 mph100%29.56 "HgN/A
9:20 AM37 °FLight rain. Partly sunny.2 mph93%29.56 "HgN/A
8:47 AM37 °FPartly sunny.1 mph93%29.56 "HgN/A
8:20 AM36 °FBroken clouds.2 mph100%29.56 "HgN/A
7:20 AM37 °FPassing clouds.No wind93%29.56 "HgN/A
6:20 AM36 °FPassing clouds.3 mph100%29.56 "HgN/A
5:57 AM37 °FPassing clouds.2 mph93%29.56 "HgN/A
5:20 AM36 °FLight rain. Passing clouds.2 mph100%29.56 "Hg6 mi
4:20 AM37 °FChilly.1 mph100%29.56 "Hg2 mi
Weather by CustomWeather, © 2016

See weather overviewHow to use our weather pages